Вернуться в каталог

STARLINK-5611

АктивенСвязьVLEO
NORAD 55761·PAYLOAD·🇺🇸 United States

Запущен Mar 3, 2023 с Vandenberg Space Force Base

Loading…

Ближайшие Пролёты (ближайшие 24 часа)

TLE

СвежийSource: CelesTrak SupGP

Эпоха: Sep 14, 2026, 20:52 UTC

1 55761C 23028W   26257.86993056 -.00003011  00000+0 -25235-3 0  2570
2 55761  69.9999 107.6532 0002677 270.4804 171.3546 14.98329242    10

Отслеживайте STARLINK-5611 в реальном времени с AllMySat

Download on the App Store